Location: Arran
(51.9410°N, 101.7372°W)
Time: 13:21:55
(UTC+00:00)

Oscar 19 - Pass Details

Date: 05 December 2023
Orbit: 771 x 789 km, 98.9° (Epoch: 29 February)

Event Time Altitude Azimuth Distance (km) Brightness Sun altitude
Rises 10:20:04 0° 26° (NNE) 3,274 14.3 -38.4°
Reaches altitude 10° 10:23:04 10° 44° (NE) 2,344 13.6 -37.9°
Maximum altitude 10:26:43 19° 90° (E) 1,791 13.1 -37.4°
Drops below altitude 10° 10:30:20 10° 135° (SE) 2,339 13.4 -36.9°
Sets 10:33:19 0° 152° (SSE) 3,265 14.1 -36.4°
